Regional Weather Roundup
Issued by NWS Charleston, SC

Current Version | Previous Version | Graphics & Text | Print | Product List | Glossary On
Versions: 1 2 3 4 5 6 7 8 9 10 11 12 13 14 15 16 17 18 19 20 21 22 23 24 25 26 27 28 29 30 31 32 33 34 35 36 37 38 39 40 41 42 43 44 45 46 47 48 49 50
000
ASUS42 KCHS 290625
RWRCHS

REGIONAL WEATHER ROUNDUP
NATIONAL WEATHER SERVICE CHARLESTON SC
200 AM EDT TUE JUL 29 2014

NOTE: "FAIR" INDICATES FEW OR NO CLOUDS BELOW 12,000 FEET WITH NO
SIGNIFICANT WEATHER AND/OR OBSTRUCTIONS TO VISIBILITY.

NOT ALL STATIONS ARE QUALITY CONTROLLED BY THE NATIONAL
WEATHER SERVICE. USE DATA WITH CAUTION...ESPECIALLY
DEWPOINT OBSERVATIONS.

SCZ027-030-031-034>040-042>050-290700-
...SOUTH CAROLINA...

CITY           SKY/WX    TMP DP  RH WIND       PRES   REMARKS
N CHARLESTON   PTCLDY    78  69  73 NW7       29.83F
6HR MIN TEMP:  78; 6HR MAX TEMP:  88;

WATERFRONT PRK NOT AVBL
FORT JOHNSON   NOT AVBL
MOUNT PLEASANT FAIR      79  70  73 CALM      29.83S
JOHNS ISLAND   CLEAR     79  70  73 CALM      29.83F
PINOPOLIS        N/A     84  66  54 N14       29.76S
MONCKS CORNER    N/A     81  68  65 N7        29.84S
SUMMERVILLE    FAIR      73  72  94 CALM      29.85S
BEAUFORT MCAS  PTCLDY    79  71  76 N9        29.85F
6HR MIN TEMP:  79; 6HR MAX TEMP:  85;

BEAUFORT ARPT  FAIR      81  72  74 NW9       29.84F
HILTON HEAD IS CLEAR     81  72  74 NW5       29.85F
GEORGETOWN     NOT AVBL
WALTERBORO     CLEAR     75  68  78 NW3       29.86S
ORANGEBURG     PTCLDY    75  63  66 NW3       29.87F
6HR MIN TEMP:  75; 6HR MAX TEMP:  89;

BARNWELL       FAIR      73  63  68 NW3       29.89S
AIKEN          FAIR      72  61  68 CALM      29.93F
MANNING        FAIR      73  63  68 CALM      29.85S
KINGSTREE      NOT AVBL
COLUMBIA       PTCLDY    79  57  46 N7        29.88S
6HR MIN TEMP:  79; 6HR MAX TEMP:  93;

SUMTER         PTCLDY    76  60  59 N12       29.85F
6HR MIN TEMP:  74; 6HR MAX TEMP:  90;

FLORENCE       PTCLDY    76  60  57 N7        29.85S
MYRTLE BEACH   PTCLDY    75  70  83 N9        29.82R
N MYRTLE BEACH MOCLDY    74  72  93 N6        29.82S
6HR MIN TEMP:  73; 6HR MAX TEMP:  78;


$$

GAZ063-065-086>088-099>101-113>116-118-119-134-136>141-150-290700-
...GEORGIA...

CITY           SKY/WX    TMP DP  RH WIND       PRES   REMARKS
SAVANNAH ARPT  CLEAR     78  72  81 W7        29.87S
6HR MIN TEMP:  78; 6HR MAX TEMP:  90;

HUNTER AAF     PTCLDY    79  71  76 W9        29.85S
6HR MIN TEMP:  78; 6HR MAX TEMP:  89;

FORT STEWART   CLEAR     78  71  79 W9        29.87S
6HR MIN TEMP:  77; 6HR MAX TEMP:  79; 6HR PCP:  0.07;

STATESBORO     NOT AVBL
SYLVANIA       CLEAR     73  73  97 NW3       29.88F
CLAXTON        FAIR      73  73 100 CALM      29.89F
THOMSON        CLEAR     68  68 100 CALM      29.96S
AUGUSTA-BUSH   CLEAR     68  63  84 CALM      29.89S
6HR MIN TEMP:  68; 6HR MAX TEMP:  90;

AUGUSTA-DANIEL CLEAR     77  60  55 NW5       29.91F
SWAINSBORO     FAIR      72  72 100 CALM      29.91F
VIDALIA          N/A     77  70  78 N3        29.90F
ALMA           NOT AVBL
WAYCROSS       PTCLDY    81  74  79 NW5       29.90R
JESUP          FAIR      81  72  74 NW7       29.88F
BRUNSWICK      CLEAR     81  73  78 W7        29.88S
SAINT SIMONS   CLEAR     82  77  84 W7        29.87F HX  90
6HR MIN TEMP:  82; 6HR MAX TEMP:  91;


$$

SCZ027-028-034-036>038-045-046-048>050-GAZ119-141-290700-
...LAKE AND SUPPLEMENTAL COASTAL OBSERVATIONS...

STATION/POSITION TIME  TEMP    WIND        PRES    WAVE   SWELL
                       AIR SEA DIR/SP/G            HT/PER HT/PER/DIR
                 (UTC) (F)     (DEG/KT/KT) (MB)    (FT/S) (FT/S/D)
UPR LAKE MARION  NOT AVBL
WINYAH BAY       0600   77     340/  6     1009.0S
LAKE MURRAY      0600   74     330/  1/  4 1011.9S
ACE BASIN NERRS  0600   79     320/  2     1011.0S
FORT PULASKI     0600   81     280/ 12/ 13 1011.1F
SAPELO ISLAND    0600   82     280/  8     1012.0S

$$

ANZ835-935-AMZ111-154-330-350-352-354-374-450-454-472-290700-
...C-MAN AND BUOY OBSERVATIONS...

STATION/POSITION TIME  TEMP    WIND        PRES    WAVE   SWELL
                       AIR SEA DIR/SP/G            HT/PER HT/PER/DIR
                 (UTC) (F)     (DEG/KT/KT) (MB)    (FT/S) (FT/S/D)
FOLLY BEACH CMAN 0600   80     330/  5/  8 1010.5R
BUOY 41004       0600   83 84  260/ 16/ 17 1008.4S   4/ 6   2/ 8
BUOY 41008       0600   85 85  280/ 16/ 19 1010.8F   3/ 5   2/150/ 9
5E ST. MARYS GA  0600      85                N/A     2/ 9
FRYING PAN BUOY  NOT AVBL
BUOY 41025       0600          VRB  4/  4  1009.6F   4/ 7   3/180/ 7
CAPE LOOKOUT NC  0600   77      40/  4/  5 1010.1R
BUOY 41002       0536   82 81  230/ 17/ 21 1013.0F   6/ 7   2/160/12
BUOY 41010       0600   82 84  210/ 17/ 21 1013.6F   4/ 5   2/110/ 8
BUOY 41012       NOT AVBL
ST AUGUSTINE FL  0600   79     240/  9/ 13 1013.2F
CAPERS NEARSHORE 0500   83     330/ 12/ 12   N/A
FRIPP NEARSHORE  NOT AVBL


$$



USA.gov is the U.S. government's official web portal to all federal, state and local government web resources and services.